Location: El Barbasco
(9.9682°N, 67.7441°W)
Time: 00:34:32
(UTC+00:00)

CZ-2C R/B - Pass Details

Date: 05 August 2024
Orbit: 454 x 501 km, 97.8° (Epoch: 09 September)

Event Time Altitude Azimuth Distance (km) Brightness Sun altitude
Rises 23:03:11 0° 173° (S) 2,569 6.0 -3.3°
Reaches altitude 10° 23:05:14 10° 175° (S) 1,695 5.1 -3.8°
Maximum altitude 23:08:52 69° 258° (WSW) 539 3.0 -4.7°
Drops below altitude 10° 23:12:34 10° 343° (NNW) 1,719 5.9 -5.5°
Sets 23:14:40 0° 345° (NNW) 2,609 6.8 -6.0°
